TimeCDT,TemperatureF,Dew PointF,Humidity,Sea Level PressureIn,VisibilityMPH,Wind Direction,Wind SpeedMPH,Gust SpeedMPH,PrecipitationIn,Events,Conditions,WindDirDegrees,DateUTC
12:54 AM,21.0,12.9,71,30.06,10.0,Calm,Calm,-,N/A,,Clear,0,2013-03-22 05:54:00
1:54 AM,21.0,12.9,71,30.06,10.0,Calm,Calm,-,N/A,,Clear,0,2013-03-22 06:54:00
2:54 AM,19.9,12.9,74,30.07,10.0,Calm,Calm,-,N/A,,Clear,0,2013-03-22 07:54:00
3:54 AM,19.0,14.0,81,30.08,10.0,Calm,Calm,-,N/A,,Clear,0,2013-03-22 08:54:00
4:54 AM,17.1,12.0,81,30.07,10.0,NE,5.8,-,N/A,,Clear,50,2013-03-22 09:54:00
5:54 AM,18.0,12.0,78,30.08,10.0,Calm,Calm,-,N/A,,Clear,0,2013-03-22 10:54:00
6:54 AM,17.1,12.0,81,30.09,10.0,NE,3.5,-,N/A,,Clear,50,2013-03-22 11:54:00
7:54 AM,21.0,15.1,78,30.09,10.0,Calm,Calm,-,N/A,,Clear,0,2013-03-22 12:54:00
8:54 AM,30.9,19.0,61,30.09,10.0,NE,4.6,-,N/A,,Clear,40,2013-03-22 13:54:00
9:54 AM,33.1,14.0,46,30.10,10.0,Calm,Calm,-,N/A,,Clear,0,2013-03-22 14:54:00
10:54 AM,35.1,10.9,37,30.10,10.0,SSE,4.6,-,N/A,,Clear,160,2013-03-22 15:54:00
11:54 AM,37.0,12.0,36,30.09,10.0,SSE,5.8,-,N/A,,Clear,160,2013-03-22 16:54:00
12:54 PM,39.9,10.9,31,30.06,10.0,ESE,8.1,-,N/A,,Clear,110,2013-03-22 17:54:00
1:54 PM,41.0,12.0,31,30.04,10.0,ESE,4.6,-,N/A,,Clear,110,2013-03-22 18:54:00
2:54 PM,43.0,12.9,30,30.02,10.0,Variable,6.9,-,N/A,,Clear,0,2013-03-22 19:54:00
3:54 PM,45.0,14.0,29,30.02,10.0,Calm,Calm,-,N/A,,Mostly Cloudy,0,2013-03-22 20:54:00
4:54 PM,42.1,14.0,32,30.03,10.0,SSW,8.1,-,N/A,,Overcast,200,2013-03-22 21:54:00
5:54 PM,42.1,16.0,35,30.03,10.0,South,5.8,-,N/A,,Overcast,180,2013-03-22 22:54:00
6:54 PM,39.9,16.0,38,30.04,10.0,SSW,6.9,-,N/A,,Overcast,210,2013-03-22 23:54:00
7:54 PM,39.0,19.0,45,30.04,10.0,SSW,5.8,-,N/A,,Overcast,200,2013-03-23 00:54:00
8:54 PM,39.0,18.0,43,30.05,10.0,Calm,Calm,-,N/A,,Overcast,0,2013-03-23 01:54:00
9:54 PM,37.0,21.0,52,30.06,10.0,SW,4.6,-,N/A,,Overcast,230,2013-03-23 02:54:00
10:54 PM,37.0,21.9,54,30.06,10.0,SSW,3.5,-,N/A,,Overcast,210,2013-03-23 03:54:00
11:54 PM,37.0,21.0,52,30.05,10.0,WSW,3.5,-,N/A,,Overcast,240,2013-03-23 04:54:00